Location: Remedello Sotto
(45.2500°N, 10.3667°E)
Time: 05:42:27
(UTC+00:00)

Radarsat Rocket - Pass Details

Date: 03 February 2023
Orbit: 933 x 1491 km, 100.6° (Epoch: 29 March)

Event Time Altitude Azimuth Distance (km) Brightness Sun altitude
Rises 17:04:44 0° 158° (SSE) 3,612 6.9 -6.9°
Reaches altitude 10° 17:07:03 10° 158° (SSE) 2,701 6.3 -7.3°
Maximum altitude 17:13:04 83° 72° (ENE) 1,042 4.1 -8.3°
Drops below altitude 10° 17:19:48 10° 345° (NNW) 3,011 6.6 -9.4°
Sets 17:22:31 0° 345° (NNW) 4,054 7.3 -9.9°
